Jaffrey, NH

3:52 PM EDT on July 26, 2017 (GMT -0400)
Jaffrey Airport-Silver Ranch

Weather History for KAFN - July, 2013

Change the Weather History Date:

Wednesday, July 10, 2013

  Actual Average Record
Temperature  
Mean Temperature 72 °F -  
Max Temperature 82 °F 75 °F 88 °F (2007)
Min Temperature 64 °F 54 °F 48 °F (2002)
Cooling Degree Days 6    
Growing Degree Days 22 (Base 50)    
Moisture  
Dew Point 69 °F    
Average Humidity 90    
Maximum Humidity 100    
Minimum Humidity 74    
Precipitation  
Precipitation 0.26 in - - ()
Sea Level Pressure  
Sea Level Pressure 29.93 in    
Wind  
Wind Speed 3 mph (South)    
Max Wind Speed 10 mph    
Max Gust Speed 22 mph    
Visibility 5 miles    
Events Rain , Thunderstorm    
Averages and records for this station are not official NWS values.
T = Trace of Precipitation, MM = Missing Value Source: NWS Daily Summary

Daily Weather History Graph

Daily Weather History Graph

Search for Another Location

Airport or City:

Trip Planner

Search our weather history database for the weather conditions in past years. The results will help you decide how hot, cold, wet, or windy it might be!

Date:

Astronomy

Jul. 10, 2013 Rise Set
Actual Time 5:19 AM EDT 8:27 PM EDT
Civil Twilight 4:44 AM EDT 9:01 PM EDT
Nautical Twilight 4:00 AM EDT 9:45 PM EDT
Astronomical Twilight 3:07 AM EDT 10:38 PM EDT
Moon 7:41 AM EDT (7/10) 9:30 PM EDT (7/10)
Length of Visible Light 16h 16m
Length of Day
15h 07m
Waxing Crescent, 5% of the Moon is Illuminated
Jul 10
Waxing Crescent
Jul 15
First Quarter
Jul 22
Full
Jul 29
Last Quarter
Aug 6
New

Hourly Weather History & Observations

Time (EDT) Temp. Dew Point Humidity Pressure Visibility Wind Dir Wind Speed Gust Speed Precip Events Conditions
12:52 AM 66.9 °F 64.9 °F 93% 30.09 in 5.0 mi Calm Calm - N/A   Overcast
1:52 AM 66.0 °F 64.0 °F 93% 30.08 in 3.0 mi Calm Calm - N/A   Overcast
2:04 AM 66.2 °F 64.4 °F 94% 30.07 in 2.5 mi Calm Calm - N/A   Overcast
2:16 AM 66.2 °F 64.4 °F 94% 30.06 in 3.0 mi ESE 3.5 mph - N/A   Overcast
2:52 AM 66.0 °F 64.0 °F 93% 30.06 in 4.0 mi Calm Calm - N/A   Overcast
3:17 AM 64.4 °F 64.4 °F 100% 30.05 in 2.0 mi Calm Calm - N/A   Overcast
3:52 AM 64.9 °F 64.0 °F 97% 30.05 in 2.0 mi Calm Calm - N/A   Overcast
4:40 AM 66.2 °F 64.4 °F 94% 30.03 in 3.0 mi Calm Calm - N/A   Overcast
4:52 AM 66.0 °F 64.0 °F 93% 30.04 in 5.0 mi Calm Calm - N/A   Overcast
5:32 AM 66.2 °F 64.4 °F 94% 30.03 in 2.5 mi Calm Calm - N/A   Overcast
5:42 AM 66.2 °F 64.4 °F 94% 30.03 in 3.0 mi Calm Calm - N/A   Overcast
5:52 AM 66.0 °F 64.0 °F 93% 30.03 in 3.0 mi Calm Calm - N/A   Overcast
6:00 AM 66.2 °F 64.4 °F 94% 30.03 in 2.5 mi Calm Calm - N/A   Overcast
6:16 AM 66.2 °F 64.4 °F 94% 30.02 in 3.0 mi Calm Calm - N/A   Overcast
6:52 AM 66.9 °F 64.9 °F 93% 30.03 in 8.0 mi Calm Calm - N/A   Overcast
7:06 AM 66.2 °F 64.4 °F 94% 30.02 in 9.0 mi SSE 3.5 mph - N/A   Overcast
7:52 AM 68.0 °F 64.9 °F 90% 30.01 in 10.0 mi SSE 6.9 mph - N/A   Overcast
8:52 AM 69.1 °F 66.0 °F 90% 30.01 in 10.0 mi SSE 5.8 mph - N/A   Overcast
9:52 AM 70.0 °F 66.0 °F 87% 29.99 in 10.0 mi South 6.9 mph - N/A   Overcast
10:49 AM 73.4 °F 66.2 °F 78% 29.98 in 10.0 mi South 10.4 mph - N/A   Overcast
10:52 AM 73.0 °F 66.9 °F 81% 29.99 in 9.0 mi South 9.2 mph - N/A   Overcast
11:52 AM 75.9 °F 68.0 °F 76% 29.96 in 7.0 mi SSW 8.1 mph - N/A   Overcast
12:24 PM 77.0 °F 69.8 °F 78% 29.95 in 7.0 mi SSE 4.6 mph - N/A   Mostly Cloudy
12:52 PM 78.1 °F 69.1 °F 74% 29.94 in 7.0 mi SSE 6.9 mph - N/A   Overcast
1:52 PM 79.0 °F 70.0 °F 74% 29.89 in 7.0 mi South 6.9 mph - N/A   Mostly Cloudy
2:01 PM 78.8 °F 69.8 °F 74% 29.89 in 7.0 mi SSE 6.9 mph - N/A   Mostly Cloudy
2:52 PM 79.0 °F 71.1 °F 77% 29.88 in 7.0 mi SSE 10.4 mph - N/A   Mostly Cloudy
3:28 PM 77.0 °F 71.6 °F 83% 29.87 in 1.8 mi SSW 10.4 mph 21.9 mph 0.06 in Rain Rain
3:34 PM 75.2 °F 71.6 °F 89% 29.87 in 1.2 mi South 9.2 mph 21.9 mph 0.09 in Rain , Thunderstorm Thunderstorms and Rain
3:44 PM 75.2 °F 71.6 °F 89% 29.86 in 2.0 mi South 8.1 mph 18.4 mph 0.12 in Rain , Thunderstorm Light Thunderstorms and Rain
3:52 PM 75.0 °F 71.1 °F 87% 29.87 in 7.0 mi SSW 4.6 mph - 0.12 in Rain , Thunderstorm Light Rain
4:06 PM 75.2 °F 71.6 °F 89% 29.86 in 6.0 mi Calm Calm - 0.00 in   Mostly Cloudy
4:48 PM 75.2 °F 73.4 °F 94% 29.85 in 4.0 mi Calm Calm - 0.01 in Thunderstorm Partly Cloudy
4:52 PM 75.9 °F 73.0 °F 91% 29.85 in 5.0 mi South 3.5 mph - 0.01 in Thunderstorm Partly Cloudy
5:00 PM 75.2 °F 73.4 °F 94% 29.86 in 1.5 mi SW 3.5 mph - 0.05 in Rain , Thunderstorm Light Rain
5:02 PM 75.2 °F 73.4 °F 94% 29.85 in 0.8 mi Variable 3.5 mph - 0.10 in Rain , Thunderstorm Heavy Thunderstorms and Rain
5:12 PM 75.2 °F 73.4 °F 94% 29.84 in 1.5 mi SSW 8.1 mph - 0.13 in Rain , Thunderstorm Light Thunderstorms and Rain
5:14 PM 75.2 °F 73.4 °F 94% 29.84 in 4.0 mi SSW 8.1 mph - 0.13 in Rain , Thunderstorm Light Thunderstorms and Rain
5:17 PM 75.2 °F 73.4 °F 94% 29.84 in 5.0 mi SSW 5.8 mph - 0.13 in Rain , Thunderstorm Light Rain
5:37 PM 75.2 °F 73.4 °F 94% 29.84 in 6.0 mi South 8.1 mph - 0.13 in Rain Light Rain
5:52 PM 75.9 °F 73.0 °F 91% 29.84 in 6.0 mi SSW 5.8 mph - 0.13 in Rain Light Rain
6:52 PM 75.0 °F 72.0 °F 90% 29.83 in 5.0 mi SSW 4.6 mph - 0.00 in   Overcast
7:13 PM 75.2 °F 71.6 °F 89% 29.84 in 5.0 mi SSW 3.5 mph - N/A   Overcast
7:52 PM 73.9 °F 72.0 °F 93% 29.84 in 6.0 mi SSW 5.8 mph - N/A   Overcast
8:16 PM 73.4 °F 71.6 °F 94% 29.85 in 6.0 mi SSW 3.5 mph - N/A   Overcast
8:52 PM 73.9 °F 71.1 °F 91% 29.84 in 8.0 mi SSW 5.8 mph - N/A   Overcast
9:52 PM 73.0 °F 71.1 °F 93% 29.85 in 8.0 mi SSW 6.9 mph - N/A   Overcast
10:35 PM 73.4 °F 71.6 °F 94% 29.85 in 8.0 mi South 4.6 mph - N/A   Overcast
10:52 PM 73.0 °F 71.1 °F 93% 29.84 in 7.0 mi SSW 4.6 mph - N/A   Overcast
11:52 PM 73.0 °F 71.1 °F 93% 29.83 in 7.0 mi SW 3.5 mph - N/A   Overcast